Location: Bosdarros
(43.2167°N, 0.3667°W)
Time: 15:37:22
(UTC+00:00)

COSMOS 2455 - Pass Details

Date: 22 April 2021
Orbit: 902 x 907 km, 67.1° (Epoch: 12 May)

Event Time Altitude Azimuth Distance (km) Brightness Sun altitude
Rises 21:23:24 0° 215° (SW) 3,516 5.8 -23.8°
Reaches altitude 10° 21:25:55 10° 217° (SW) 2,580 5.1 -24.1°
Maximum altitude 21:31:53 73° 302° (WNW) 950 3.0 -24.8°
Drops below altitude 10° 21:37:55 10° 27° (NNE) 2,597 5.5 -25.5°
Sets 21:40:27 0° 30° (NNE) 3,543 6.2 -25.8°
